SCP
0 0 0 0 0 0 0 0 0 0 0 1 1 1 1 1 0 0 0 0 0 0 0 0 0 0 0 0 0 0 0 0 0 0 0 0 0 0
0 0 0 0 0 0 0 0 0 0 0 1 1 1 1 1 0 0 0 0 0 0 0 0 0 0 0 0 0 0 0 0 0 0 0 0 0 0
0 0 0 0 0 0 0 0 0 0 1 1 1 1 1 0 0 0 0 0 0 0 0 0 0 0 0 0 0 0 0 0 0 0 0 0 0 0
0 0 0 0 0 0 0 0 0 0 0 1 1 0 0 0 0 0 0 0 0 0 0 0 0 0 0 0 0 0 0 0 0 0 0 0 0 0
0 0 0 0 0 0 0 0 0 0 0 0 0 0 0 0 0 0 0 0 0 0 0 0 0 0 0 0 0 0 0 0 0 0 0 0 0 0
0 0 0 0 0 0 0 0 0 0 0 0 0 0 0 0 0 0 0 0 0 0 0 0 0 0 0 0 0 0 0 0 0 0 0 0 0 0
0 0 0 0 0 0 0 0 0 0 0 0 0 0 0 0 0 0 0 0 0 0 0 0 0 0 0 0 0 0 0 0 0 0 0 0 0 0
0 0 0 0 0 0 0 0 0 0 0 0 0 0 0 0 0 0 0 0 0 0 0 0 0 0 0 0 0 0 0 0 0 0 0 0 0 0
0 0 0 0 0 0 0 0 0 0 0 0 0 0 0 -0 -0 -0 0 0 0 0 0 0 0 0 0 0 0 0 0 0 0 0 0 0 0 0
0 0 0 0 0 0 0 0 0 0 0 0 0 -0 -0 -0 -0 -0 0 0 0 0 0 0 0 0 0 0 0 0 0 0 0 0 0 0 0 0
0 0 0 0 0 0 0 0 0 0 0 0 0 -0 -0 -0 0 0 0 0 0 0 0 0 0 0 0 0 -0 -0 0 0 0 0 0 0 0 0
0 0 0 0 0 0 0 0 0 0 0 0 0 0 0 0 0 0 0 0 0 0 0 0 0 0 0 0 -0 -0 -0 -0 -0 0 0 0 0 0
0 0 0 0 0 0 0 0 0 0 0 0 0 0 0 0 0 0 0 0 0 0 0 0 0 0 0 0 -0 -0 -0 -0 -0 0 0 0 0 0
0 0 0 0 0 0 0 0 0 0 0 0 0 0 0 0 0 0 0 0 0 0 0 0 0 0 0 0 -0 -0 -0 0 0 0 -0 0 0 0
0 0 0 0 0 0 0 0 0 0 0 0 0 0 0 0 0 0 0 0 0 0 0 0 0 0 0 0 0 0 0 0 0 0 -0 0 0 0
0 0 0 0 0 0 0 0 0 0 0 0 0 0 0 0 0 0 0 0 0 0 0 0 0 0 0 0 0 0 0 0 0 0 -0 0 0 0
0 0 0 0 0 0 0 0 0 0 0 0 0 0 0 0 0 0 0 0 0 0 0 0 0 0 0 0 0 0 0 0 0 0 -0 0 0 0
0 0 0 0 0 0 0 0 0 0 0 0 0 0 0 0 0 0 0 0 0 0 0 0 -0 0 0 0 0 0 0 0 0 0 -0 0 0 0
0 0 0 0 0 0 0 0 0 0 0 0 0 0 0 0 0 0 0 0 0 0 0 0 0 0 0 0 0 0 0 0 0 0 0 0 0 0
0 0 0 0 0 0 0 0 0 0 0 0 0 0 0 0 0 0 0 0 0 0 0 0 0 0 0 0 0 0 0 0 0 0 0 0 0 0
0 0 0 0 0 0 0 0 0 0 0 0 0 0 0 0 0 0 0 0 0 0 0 0 0 0 0 0 0 0 0 0 0 0 0 0 0 0
0 0 0 0 0 0 0 0 0 0 0 0 0 0 0 0 0 0 0 0 0 0 0 0 0 0 0 0 0 0 0 0 0 0 0 0 0 0
0 0 0 0 0 0 0 0 0 0 0 0 0 0 0 0 0 0 0 0 0 0 0 0 0 0 0 0 0 0 0 0 0 0 0 0 0 0
Wind_Speed
7 8 7 7 7 7 7 7 6 6 4 3 1 4 6 7 7 9 9 11 13 12 12 12 13 14 15 15 16 16 15 15 15 15 16 16 14 10
5 7 7 6 6 5 6 7 7 6 4 2 2 4 7 8 11 10 11 15 14 14 14 14 15 16 16 16 16 16 15 15 16 16 16 17 16 15
5 6 6 6 4 4 4 5 6 6 5 2 2 6 9 10 9 9 9 9 10 15 16 17 17 17 16 16 16 16 16 16 15 15 15 16 16 15
5 6 7 6 5 4 3 5 6 6 5 7 5 5 8 9 10 10 9 9 9 15 17 18 18 17 17 16 17 16 16 16 15 15 15 15 15 14
4 5 5 5 4 3 3 5 5 4 4 8 7 6 5 7 10 10 10 8 9 12 16 16 17 17 16 16 16 15 14 14 14 13 13 13 13 13
4 4 4 3 3 4 2 4 4 1 5 8 9 8 6 7 7 9 8 6 6 9 10 11 15 17 16 15 15 15 13 13 13 13 13 12 12 13
4 2 2 6 7 5 3 3 3 3 6 8 9 8 6 6 5 5 8 7 7 7 8 8 8 8 8 11 14 14 13 13 13 13 13 12 11 11
3 3 6 6 8 10 10 9 7 6 7 8 8 8 6 5 3 5 6 8 6 5 6 6 6 7 6 5 7 10 11 11 11 12 11 10 9 8
3 4 5 7 7 7 7 8 9 9 9 8 9 7 6 5 5 6 6 7 5 6 7 8 7 7 5 6 8 8 9 9 9 10 9 8 6 4
4 5 7 8 6 7 6 7 7 5 6 6 7 6 5 6 7 5 7 7 5 5 7 7 7 7 6 4 8 9 9 8 7 7 8 8 8 3
5 6 8 8 9 8 7 8 8 7 9 11 10 10 9 7 6 6 7 6 5 4 5 5 6 7 5 3 5 8 7 7 6 4 3 6 10 7
3 5 9 11 10 8 7 7 8 7 8 8 7 7 7 8 9 4 2 4 6 4 3 4 7 5 4 3 4 4 4 4 4 3 2 2 4 4
2 3 6 15 12 9 7 6 9 8 7 6 5 4 4 5 6 6 4 1 5 4 2 3 5 4 4 4 4 4 4 3 3 2 5 7 4 0
2 4 5 15 13 10 6 11 13 10 6 5 4 4 4 6 6 5 6 7 9 7 5 4 3 2 4 4 4 3 4 4 3 2 2 3 6 4
0 6 6 13 13 8 11 15 12 6 5 5 4 5 6 7 5 4 5 6 8 8 7 7 5 3 4 5 4 3 2 3 4 3 3 3 1 3
1 2 9 12 9 10 10 9 6 4 4 4 6 7 6 5 5 4 4 5 6 4 5 7 7 6 4 4 4 3 2 3 3 3 2 4 1 2
5 4 6 7 7 8 7 5 4 3 3 5 8 7 5 5 4 4 5 5 5 4 3 3 4 4 5 4 3 2 2 3 3 1 2 2 2 3
9 8 9 8 8 8 7 5 4 4 4 6 7 6 5 5 5 5 5 6 7 6 4 4 3 2 2 3 3 2 3 3 2 1 1 2 2 2
9 9 8 7 8 8 6 6 5 5 5 5 5 5 4 5 5 4 3 5 5 6 6 5 4 4 5 5 2 3 2 2 1 1 1 1 2 1
7 6 7 7 7 7 7 6 6 6 6 5 5 5 5 5 4 4 4 5 5 5 4 3 2 2 2 2 4 4 5 3 2 1 1 2 2 2
4 3 5 6 6 6 6 7 7 6 6 5 5 6 5 5 5 4 5 6 6 4 5 4 2 2 1 0 2 3 4 7 6 4 3 2 3 2
2 2 3 6 6 5 6 7 7 5 6 6 5 5 5 5 5 6 6 5 3 4 7 5 3 2 2 2 1 1 3 5 8 11 8 5 3 3
4 3 2 6 7 6 7 7 7 6 5 6 6 5 5 5 5 6 6 5 4 6 7 6 5 4 4 4 3 3 3 3 3 2 4 11 15 16
Wind_Direction
284 284 282 280 273 267 263 259 258 270 269 230 141 93 105 110 121 106 102 99 96 92 91 88 85 82 79 76 74 72 71 72 73 74 74 71 63 56
280 279 281 279 273 267 260 256 247 239 244 208 148 132 122 112 99 97 98 97 93 93 91 90 87 84 82 80 78 77 75 73 72 73 74 74 71 63
295 295 302 304 304 294 277 261 251 233 222 160 93 117 117 114 109 108 107 101 99 97 96 93 91 88 85 83 81 78 76 74 73 73 73 74 74 69
290 296 305 316 321 314 312 287 264 235 190 149 130 122 119 117 117 114 112 109 106 104 103 100 96 91 88 85 82 78 74 72 71 71 72 73 74 74
280 293 303 313 319 331 326 310 287 249 171 142 135 126 121 122 116 110 111 114 113 114 105 100 99 95 90 86 83 79 75 72 71 71 72 73 75 75
260 269 285 319 348 339 350 331 311 242 141 134 132 131 128 122 122 125 125 130 127 118 104 106 103 94 90 88 85 81 74 71 70 70 70 71 74 77
246 242 81 83 67 41 45 20 10 82 119 126 129 130 131 131 134 136 133 133 124 129 129 132 124 110 97 86 82 81 77 75 74 72 69 69 73 78
221 145 140 133 102 78 66 54 54 89 113 122 129 134 129 128 127 140 145 142 141 161 144 133 117 103 95 89 94 90 86 84 82 79 76 73 76 83
188 170 177 140 136 117 97 77 63 77 99 120 131 133 140 161 171 178 162 145 135 149 131 116 108 103 108 121 134 124 114 104 95 85 79 78 80 111
184 162 138 150 151 146 131 100 76 71 116 121 124 129 148 185 202 180 140 125 127 130 127 125 128 126 126 139 159 151 140 126 108 83 55 38 35 76
196 159 144 143 151 150 127 114 103 90 94 111 120 128 131 128 137 127 129 135 142 142 139 129 137 133 137 147 174 179 167 156 146 127 69 20 9 22
230 164 151 142 151 149 137 132 126 127 128 123 121 122 109 84 71 82 134 158 149 135 125 125 142 140 145 162 167 181 199 196 193 201 223 289 343 17
312 197 151 147 151 155 155 144 143 141 138 135 126 113 98 83 68 53 39 93 137 118 111 121 149 150 143 156 171 171 158 142 146 189 216 226 244 136
320 299 173 161 155 156 153 149 154 153 150 152 149 146 120 92 77 61 51 59 86 88 53 58 96 125 146 140 126 122 126 122 103 55 352 195 214 208
219 297 214 170 151 147 151 156 164 179 164 161 151 127 109 108 102 86 71 67 67 65 53 46 61 46 67 108 119 119 116 118 106 73 350 314 204 163
101 216 183 171 152 139 151 163 186 200 162 145 122 115 117 128 137 144 129 110 93 75 55 54 45 41 68 71 98 115 115 113 108 90 318 300 296 113
136 169 180 170 148 146 159 179 198 169 143 123 123 131 146 160 160 159 141 124 115 117 107 81 73 71 69 50 72 87 95 102 115 115 293 319 338 91
160 187 180 168 154 155 165 178 176 151 134 124 133 152 171 166 156 162 165 154 149 149 148 145 134 115 91 39 25 53 76 76 49 2 360 5 336 64
185 190 177 164 155 161 171 167 162 147 132 136 154 168 156 141 144 162 156 136 136 139 149 161 170 175 193 183 232 280 158 151 169 339 351 323 298 310
199 179 164 157 160 166 166 161 158 144 146 160 169 163 145 144 153 155 142 136 128 128 136 143 113 88 61 114 155 205 225 196 174 197 256 284 274 278
187 165 159 157 158 158 155 150 144 149 161 157 150 141 144 155 161 160 136 141 146 156 141 120 128 135 85 337 229 169 189 219 206 194 209 243 266 277
188 225 169 146 143 144 134 133 142 153 150 141 138 146 162 170 162 144 137 151 179 141 121 126 154 176 232 242 273 236 176 191 235 233 230 222 224 251
213 237 200 151 145 143 137 143 151 149 154 149 153 167 169 154 138 132 144 172 168 135 138 154 179 210 221 205 212 239 228 200 216 188 222 232 233 246